User: anonymous   Login
Location: Unspecified
(0.0000°N, 0.0000°E)
Time: 18:30:43
(UTC+00:00)
Language:

Tiros 10 - Orbit

View from above orbital plane
View from above orbital plane
View from above satellite
View from above satellite

Ground track
Ground track

The orbit data is extracted from the following two-line orbital elements,

1  1430U 65051A   17289.95018542 +.00000017 +00000-0 +18249-4 0  9992
2  1430 098.1591 078.3205 0055382 246.5072 113.0291 14.40202996740181
Epoch (UTC): 16 October 2017 22:48:16
Eccentricity: 0.0055382
inclination: 98.1591°
perigee height: 718 km
apogee height: 797 km
right ascension of ascending node: 78.3205°
argument of perigee: 246.5072°
revolutions per day: 14.40202996
mean anomaly at epoch: 113.0291°
orbit number at epoch: 74018

The dashed part of the orbit path shows where the satellite is in the earth's shadow,  

DLR